Regional Weather Roundup
Issued by NWS

Home | Current Version | Previous Version | Graphics & Text | Print | Product List | Glossary On
Versions: 1 2 3 4 5 6 7 8 9 10 11 12 13 14 15 16 17 18 19 20 21 22 23 24 25 26 27 28 29 30 31 32 33 34 35 36 37 38 39 40 41 42 43 44 45 46 47 48 49 50
000
ASUS43 KFSD 011810
RWRSD

WEATHER ROUNDUP FOR SOUTH DAKOTA
NATIONAL WEATHER SERVICE SIOUX FALLS SD
100 PM CDT WED OCT 01 2014

NOTE: "FAIR" INDICATES FEW OR NO CLOUDS BELOW 12,000 FEET WITH NO
SIGNIFICANT WEATHER AND/OR OBSTRUCTIONS TO VISIBILITY.


SDZ001>005-009-010-012>017-011900-
NORTHWEST AND NORTH CENTRAL SOUTH DAKOTA

CITY           SKY/WX    TMP DP  RH WIND       PRES   REMARKS
BUFFALO          N/A     50  44  80 NW18      29.80R
FAITH            N/A     57  48  72 W20       29.83R
MOBRIDGE       MOSUNNY   66  50  56 NW18G25   29.74R
$$

SDZ012>016-024>037-041>051-057-063-072>074-011900-
SOUTHWEST AND SOUTH CENTRAL SOUTH DAKOTA

CITY           SKY/WX    TMP DP  RH WIND       PRES   REMARKS
RAPID CTY ARPT CLOUDY    58  43  57 N22G30    29.87R
PIERRE         MOSUNNY   68  50  52 W14G20    29.78S
CUSTER         LGT RAIN  49  42  77 S3        29.91R
ELLSWORTH AFB  PTSUNNY   59  43  55 N16G26    29.86
PHILIP         PTSUNNY   63  47  55 NW14      29.83R
PINE RIDGE     CLOUDY    61  47  59 VRB5      29.86S
WINNER         FAIR      70  48  45 NW13      29.80F
$$

SDZ004>011-016>023-039-040-011900-
NORTHEAST SOUTH DAKOTA

CITY           SKY/WX    TMP DP  RH WIND       PRES   REMARKS
ABERDEEN       SUNNY     68  51  54 NW12      29.72R
WATERTOWN      FAIR      68  53  58 W10       29.71F
SISSETON         N/A     69  55  60 W8        29.68F
$$

SDZ017-020-022-023-036>040-048>070-011900-
SOUTHEAST SOUTH DAKOTA

CITY           SKY/WX    TMP DP  RH WIND       PRES   REMARKS
SIOUX FALLS    PTSUNNY   70  59  68 VRB6      29.73S
HURON          SUNNY     71  51  49 NW12      29.73S
CHAMBERLAIN    SUNNY     69  50  50 NW8       29.77F
MITCHELL       SUNNY     72  52  49 NW10      29.74S
YANKTON        FAIR      72  61  68 W12       29.73S
$$

ABBREVIATIONS USED IN REMARKS
   TC - TEMPERATURE IN CELSIUS
  WCI - WIND CHILL INDEX
   HX - HEAT INDEX
  VSB - VISIBILITY



USA.gov is the U.S. government's official web portal to all federal, state and local government web resources and services.